Погода Добеле

Погода Добеле : погода сейчас, прогноз погоды и архив. Всё, что Вы хотите узнать о погоде Добеле!

Поиск расширенной информации на нашем сайте:

Другие новости

Новости СМИ2

Главная страница сайта

Новости сайта

03.07.2017

Напоминаем, что на нашем специализированном сайте Метеоцентр.Азия вы можете получить высокодетализированные автоматические прогнозы погоды по пунктам России, СНГ и мира в авиационном формате (включающие направление и скорость ветра, видимость, явления погоды, количество и форму облачности, нижнюю и верхнюю границу облачности).


Погода Добеле - сегодня

Время (UTC), дата Ветер
(°,м/с) 
Видим.   Явления Облачность Т
(°С)
Тd
(°С)
f(%) Тe
(°С)
Pmin
(гПа)
dP
(гПа)
Po
(мм)
O2
(г/м3)
Тmin Tmax R s Состояние
почвы
18 17.11.17 230 (ЮЗ) 2{11}  10 км    ясно 
+2.7 +0.8 87 +2  1014.9  757  301    +8  0.3     
21 17.11.17 230 (ЮЗ) 10 км    ясно 
+2.5 +1.1 90 +1  1014.6  -0.3  757  301           
00 18.11.17 240 (ЮЗ) 10 км    ясно 
+2.1 +1.2 94 +1  1013.5  -1.1  756  302           
03 18.11.17 220 (ЮЗ) 10 км    ясно 
+1.9 +0.7 92 1012.2  -1.3  755  301           
06 18.11.17 210 (ЮЗ) 20000 м    4/0 средняя, верхняя 
[Ac trans|Ci fib]
+2.1 +0.9 92 -1  1010.7  -1.5  754  301  +1.3         
09 18.11.17 210 (ЮЗ) 6-10{10}  20000 м    9/5 300 м средняя 
[Sc|Ac trans]
+4.1 +2.5 89 +1  1009.3  -1.3  753  298           
12 18.11.17 210 (ЮЗ) 6{11}  20000 м  {ливн. осадки}  10/8 540 м средняя 
[Sc|Ac und]
+4.2 +2.3 87 +2  1007.1  -2.2  751  298           
15 18.11.17 210 (ЮЗ) 5{10}  10 км  {ливн. осадки}  10/4 300 м средняя 
[Sc|Ac und]
+3.9 +1.7 86 +2  1004.9  -2.2  750  297           
18 18.11.17 200 (Ю) 5{10}  10 км  {ливн. осадки}  6/3 300 м средняя 
[Sc|Ac trans]
+3.2 +0.9 85 +1  1002.9  -2  748  297    +4.5  0.0     
21 18.11.17 190 (Ю) 6{11}  10 км    10/0 средняя 
[Ac und]
+3.1 +0.4 82 1001.1  -1.8  747  297           
00 19.11.17 190 (Ю) 5{11}  10 км    10/0 средняя 
[Ac und]
+2.6 +0.3 85 999.4  -1.7  746  298           
03 19.11.17 200 (Ю) 10 км  слаб. ливневой дождь  10/10 450 м кучево-дожд. 
[Cb cap]
+1.2 +0.4 94 -2  998.2  -1.2  745  298           
06 19.11.17 210 (ЮЗ) 14000 м  слаб. ливневой дождь  10/10 300 м кучево-дожд. 
[Cb cap]
+1.6 +0.8 94 -1  997.9  -0.3  744  297  +1.1       
09 19.11.17 220 (ЮЗ) 17000 м  {ливн. осадки}  10/10 500 м 
[Sc]
+1.9 +1 94 998.3  0.4  745  297           
12 19.11.17 190 (Ю) 20000 м  {ливн. осадки}  10/10 540 м 
[Sc]
+2.7 +1.2 90 998  -0.3  745  297           
15 19.11.17 160 (Ю) 10 км  слаб. ливневой дождь  10/10 300 м кучево-дожд. 
[Cb cap]
+2.2 +1.3 94 997.8  -0.2  744  296           
18 19.11.17 190 (Ю) 4000 м  слаб. морось{ливн. осадки}  10/10 270 м 
[St]
+1.6 +1.3 98 +1  997.9  0.1  744  297    +2.7     
21 19.11.17 130 (ЮВ) 4000 м  слаб. ливневой дождь{морось}  10/10 270 м кучево-дожд. 
[Cb cap]
+0.7 +0.4 98 +1  999.2  1.2  745  299           
00 20.11.17 060 (СВ) 4000 м  слаб. ливневой дождь{морось}  10/10 400 м кучево-дожд. 
[Cb cap]
+1.5 +1.2 98 +2  999.6  0.5  746  299           
03 20.11.17 тихо ()   4000 м  слаб. ливневой дождь  10/10 450 м кучево-дожд. 
[Cb cap]
+2 +1.7 98 +2  1000.5  0.9  746  297           
06 20.11.17 340 (С) 7000 м  слаб. ливневой дождь  10/8 400 м кучево-дожд., средняя 
[Cb cap|Ac und]
+1.1 +0.8 98 +2  1001.8  1.2  747  299  +0.6       
09 20.11.17 тихо ()   20000 м  слаб. ливневой дождь  10/8 300 м кучево-дожд., средняя 
[Cb cap|Ac und]
+1.9 +1.6 98 +2  1003.2  1.5  748  298           
12 20.11.17 320 (СЗ) 20000 м  в посл. час ливневой дождь  10/6 480 м средняя 
[Sc|Ac und]
+2.5 +1.4 92 +3  1004  0.8  749  299           
15 20.11.17 320 (СЗ) 10 км  в посл. час ливневой дождь  10/6 500 м средняя 
[Sc|Ac und]
+2.1 +1.5 96 +3  1005.3  1.2  750  299           
18 20.11.17 340 (С) 10 км  {ливн. осадки}  10/3 300 м средняя 
[Sc|Ac und]
+2.1 +1.3 94 +1  1006.3  751  299    +2.7  0.3     
Время (UTC), дата Ветер
(°,м/с) 
Видим.   Явления Облачность Т
(°С)
Тd
(°С)
f(%) Тe
(°С)
Pmin
(гПа)
dP
(гПа)
Po
(мм)
O2
(г/м3)
Тmin Tmax R s Состояние
почвы

Для получения пояснительной информации подведите курсор к названию столбца.

ПОГОДА Добеле - архив

Всё, что Вы хотите узнать о погоде Добеле - удобно и подробно!

Выберите нужную дату (начиная с 1 января 2015* года) и нажмите кнопку "Найти".
Будут отображены архивные сводки погоды по пункту Добеле, начиная с указанной даты.


Отображать данные в формате CSV (для использования в таблицах Excel)


Внимание! Наш архив погоды предназначен исключительно для личного некоммерческого использования в познавательных целях. Если Вам необходимы официальные справки о состоянии погоды (для производственных, юридических, коммерческих и т.п. целей), обращайтесь в органы Росгидромета.

*Примечание: данная дата относится к архиву по метеостанциям СССР (Россия, СНГ, Балтия).
Архив по метеостанциям Зарубежной Европы и Азии (кроме Китая) хранится 10 дней, по другим регионам земного шара (Китай, Африка, Америка, Австралия, Океания) - 1 день.

Добеле - район местоположения метеостанции


Название, широта, долгота, высота метеостанции:
Добеле 56.6°ш. 23.3°д. 44 м над ур. моря [Латвия]

Дополнительная информация

В oтличие oт бoльшинства пoгoдных сайтoв мы публикуем пoдрoбную метеoинфoрмацию в детальнoм прoфессиoнальнoм фoрмате.

Характеристики температуры и влажнoсти вoздуха измеряются на высoте 2 м в тени вдали oт зданий и деревьев.
Скoрoсть ветра измеряется на высoте 10 м (на урoвне рoста челoвека скoрoсть ветра ниже в 1.5-2 раза). Если метеoстанция нахoдится в гoрoде или в лесу, тo скoрoсть ветра занижена на 2-4 м/с пo сравнению с oткрытым местoм. Скoрoсть ветра над акватoриями крупных рек и oзёр, а также на вершинах хoлмoв на 2-5 м/с выше, чем в oбычных услoвиях.
Атмoсфернoе давление в разных тoчках местнoсти мoжет значительнo oтличаться oт давления на метеoстанции, в зависимoсти oт услoвий рельефа (при пoдъёме на 10 м давление пoнижается примернo на 1 мм рт.ст.).